Presure
165 138 166 150 179 159 128 127 129 163 157 169 125 157 147 159 145 159 144 143 123 151 153 156 157 149 169 167 149 182 164 161 173 176 175 163 185 164 172 183 185 174 177 177 180 185 156
171 171 177 162 153 178 129 113 123 145 140 136 170 137 160 146 151 146 133 141 148 151 151 161 158 156 165 155 158 158 180 161 159 169 162 166 179 178 167 167 180 175 185 185 162 164 173
174 155 171 142 155 134 134 163 147 127 145 129 121 144 128 125 158 153 153 137 143 151 136 140 160 160 160 151 158 167 156 156 169 167 157 145 165 162 170 167 170 175 185 174 184 186 194
179 158 183 171 179 177 120 136 161 165 136 140 125 105 143 127 154 163 165 133 149 150 152 140 152 160 140 153 158 168 140 155 166 164 169 155 169 166 177 170 169 178 181 159 175 161 182
160 158 172 157 152 134 121 160 138 116 131 119 128 131 151 148 122 132 156 137 152 154 152 153 147 156 161 153 160 150 156 154 151 163 144 162 152 164 155 159 164 180 176 177 162 180 186
141 176 161 207 125 185 133 123 118 137 117 154 139 133 130 155 120 145 139 118 147 157 150 159 134 159 151 143 152 155 160 150 148 147 149 162 166 165 153 171 169 169 175 176 164 166 169
161 192 152 177 122 176 176 156 120 170 128 149 119 123 142 138 152 153 131 151 161 152 131 150 150 144 150 159 157 149 150 153 158 149 149 159 163 156 158 166 173 176 157 180 158 168 162
162 202 170 125 203 147 123 122 111 117 118 115 133 115 126 107 159 152 142 122 145 132 145 156 142 145 144 162 146 151 156 150 164 153 152 158 155 156 150 167 162 163 181 165 153 163 166
149 154 154 154 153 134 116 128 122 119 135 125 122 157 124 163 141 128 149 153 152 148 140 134 155 153 148 147 161 161 149 163 147 157 156 154 152 155 155 163 155 167 164 162 159 174 178
133 135 136 130 125 119 158 140 110 127 130 114 132 134 130 136 145 118 155 118 154 154 147 157 128 160 146 143 139 160 157 153 145 163 160 147 162 157 152 166 165 167 177 167 180 173 174
124 165 181 162 126 132 115 131 117 137 140 141 109 113 134 140 144 140 144 158 161 155 155 133 147 145 159 155 154 147 150 144 148 157 150 162 147 161 162 172 164 171 168 177 167 158 163
156 119 126 136 106 127 127 117 107 104 106 125 140 129 136 164 118 125 137 140 155 150 140 161 152 159 159 155 147 132 156 149 149 149 151 158 153 170 159 165 162 167 165 177 164 161 163
113 139 116 129 113 116 140 120 109 131 123 130 115 111 101 122 130 136 108 142 128 149 132 154 159 141 160 159 140 151 158 163 139 157 147 168 162 154 159 161 170 163 162 160 163 160 165
113 121 121 133 127 115 115 119 107 114 103 118 124 128 141 136 105 145 152 158 171 143 142 152 148 152 146 141 133 156 151 151 160 160 158 166 148 142 163 144 160 159 161 165 173 166 155
124 134 135 118 111 132 133 113 104 119 132 113 135 125 128 143 121 98 140 150 139 148 154 154 137 156 156 138 135 143 159 140 148 167 164 148 153 161 150 161 159 153 156 170 164 161 163
127 131 127 128 118 131 115 122 111 104 123 130 99 131 146 130 139 133 143 144 151 130 125 162 147 163 155 146 162 143 149 142 154 160 165 157 157 158 157 166 150 163 160 169 163 173 168
114 129 121 104 113 110 118 116 92 107 123 144 134 133 92 101 136 151 138 145 152 167 147 152 135 151 152 156 148 134 146 147 157 156 147 158 154 144 157 166 159 163 166 168 166 167 173
116 119 118 118 123 118 123 98 122 128 119 98 142 90 133 97 144 118 129 178 161 144 150 144 165 146 164 141 141 149 148 155 169 168 156 153 157 165 163 160 158 167 164 166 169 174 178
131 144 121 108 101 132 119 122 137 130 107 131 150 140 109 150 98 116 146 141 144 151 163 136 140 158 162 150 159 158 149 169 166 160 149 157 164 165 166 164 168 171 167 169 162 174 173
142 161 149 133 130 138 121 135 147 143 129 116 100 114 114 172 139 149 140 162 156 151 148 150 163 135 151 159 155 153 156 166 157 149 150 167 167 166 161 172 170 162 166 170 175 182 183
164 129 113 141 116 159 150 149 133 136 152 121 149 146 122 129 134 142 154 143 150 164 140 176 159 148 147 146 160 154 168 159 145 157 170 166 166 161 171 173 163 170 167 183 181 178 185
172 136 150 159 158 118 101 141 140 139 133 125 128 152 102 140 148 131 152 164 160 144 155 144 153 167 161 154 155 162 155 160 161 173 161 168 167 174 163 161 161 167 178 192 172 183 182
141 150 166 161 154 141 123 122 121 132 135 151 138 143 150 150 146 151 158 139 168 161 143 161 160 165 162 157 166 168 166 165 159 167 164 150 169 167 151 167 169 166 177 171 174 195 187
128 144 159 147 126 132 168 147 130 122 150 116 167 148 152 147 148 142 141 154 168 168 152 160 148 162 151 157 162 162 162 170 162 158 169 171 164 159 174 178 166 167 183 174 187 191 196
152 160 159 156 159 157 141 156 151 154 142 157 149 152 153 143 153 156 156 151 145 155 150 147 158 153 158 160 158 149 167 153 175 176 162 176 178 170 165 176 184 183 186 183 177 181 195
172 171 163 163 161 145 153 151 160 161 160 161 116 144 152 151 157 161 152 172 158 161 137 160 143 134 172 165 174 171 175 168 178 176 175 168 180 175 175 178 173 190 179 186 195 186 190
178 172 168 164 169 160 171 170 175 141 167 166 155 170 144 164 156 147 164 155 157 155 149 172 161 157 171 176 175 163 178 174 175 177 180 177 158 175 185 168 172 180 191 192 190 206 203
173 164 166 162 150 161 162 156 164 141 165 128 170 140 170 165 160 160 156 158 159 160 162 164 168 168 172 171 176 168 148 181 171 165 165 166 179 171 184 175 187 190 196 195 203 201 208
164 157 156 155 161 162 151 162 175 175 175 155 170 131 180 155 161 170 173 173 155 160 164 142 175 180 163 158 174 160 167 170 182 171 167 173 178 181 186 177 184 189 195 204 200 206 203
Wind_Speed
23 13 17 10 27 8 4 7 10 14 11 15 20 19 18 20 16 27 23 25 40 32 38 41 41 37 53 48 25 60 46 42 59 65 54 38 71 36 53 67 59 45 52 48 56 58 29
31 24 26 15 11 21 4 9 3 10 10 14 13 16 20 16 23 19 28 21 29 34 32 46 46 43 52 31 41 33 62 44 37 61 51 51 70 68 47 46 66 58 62 60 29 38 54
29 14 23 10 16 7 6 11 12 9 10 12 21 17 16 23 23 20 22 17 33 33 35 21 46 48 50 37 41 56 31 38 61 59 37 26 54 56 61 57 66 67 64 57 60 63 61
35 23 33 24 24 19 2 9 12 13 11 11 19 10 17 13 24 25 29 20 33 29 31 23 37 47 24 42 49 58 22 39 59 60 66 40 68 62 74 69 67 73 70 39 60 46 70
24 21 24 17 12 10 2 15 8 10 9 16 18 17 20 18 26 25 24 16 30 33 30 35 33 43 50 45 53 36 50 43 38 62 48 63 44 65 55 56 60 73 70 69 49 70 73
17 36 28 41 8 25 8 4 7 11 3 16 13 16 19 22 25 27 20 30 33 36 30 41 27 45 41 32 44 51 57 42 39 40 44 67 72 69 47 79 71 74 72 74 62 67 68
14 37 22 28 11 25 25 18 8 22 11 18 14 16 19 23 27 28 20 35 33 38 28 36 33 30 38 48 50 41 42 51 58 47 52 67 72 57 65 75 80 79 57 77 61 76 71
19 43 20 16 27 19 7 9 6 9 10 4 13 17 18 14 24 28 29 29 32 25 35 42 28 32 31 55 40 45 50 46 62 54 55 65 61 63 52 76 70 73 78 74 56 75 73
20 20 20 22 21 17 8 13 15 14 16 16 18 27 9 23 24 23 25 33 36 39 40 26 46 45 37 41 56 57 42 62 44 60 62 60 58 67 67 73 60 78 72 71 69 84 85
24 21 23 18 19 13 28 20 3 20 18 16 19 20 24 23 28 26 28 35 35 39 42 42 37 47 34 37 38 57 56 53 46 65 65 52 71 72 63 79 76 76 84 80 82 85 83
25 25 31 27 22 20 11 22 14 15 23 23 14 18 27 25 28 30 36 34 32 39 37 35 45 43 50 49 50 45 46 43 52 64 56 73 58 77 75 82 80 84 86 91 82 76 88
29 22 25 24 12 23 20 18 2 6 11 25 27 27 24 32 18 28 33 34 39 37 40 40 49 47 51 50 48 37 56 51 52 53 59 72 66 79 70 77 78 84 85 90 85 82 89
23 33 21 31 17 17 32 26 18 27 27 26 27 19 14 33 35 38 31 38 41 46 34 48 43 42 51 53 40 55 64 69 41 68 52 78 72 65 74 78 91 85 80 82 82 80 91
27 34 28 34 33 24 24 27 8 24 7 33 34 32 35 34 18 42 39 44 42 40 46 52 49 57 54 42 39 61 52 57 74 69 80 82 51 49 87 56 85 83 89 95 98 92 74
40 43 40 31 22 41 37 19 16 33 37 30 34 36 36 40 38 21 44 45 43 44 47 53 47 57 55 45 44 58 66 43 58 79 81 61 67 88 66 88 86 74 82 101 90 87 92
43 45 42 41 36 42 31 36 29 16 38 41 21 37 43 38 43 41 46 44 48 42 42 51 46 56 59 60 61 58 59 49 74 77 80 76 83 81 80 91 73 99 95 99 92 106 99
38 47 40 25 33 33 38 36 26 24 37 47 44 45 25 28 46 43 45 52 49 51 54 56 51 55 60 65 59 47 55 64 77 66 57 79 75 63 83 95 94 97 105 105 101 105 115
46 47 44 45 48 45 47 29 43 46 43 24 50 26 47 27 52 39 46 52 53 51 57 51 62 57 65 53 59 70 68 78 84 81 72 67 80 94 96 88 93 107 104 104 110 113 119
60 63 52 38 32 55 47 48 53 47 32 49 51 52 38 54 26 52 55 54 57 61 56 50 52 67 66 67 72 77 72 85 81 80 62 83 91 93 98 94 104 112 107 110 93 114 108
66 68 66 59 59 61 49 53 59 56 52 46 30 40 49 48 59 61 58 57 57 64 57 62 66 52 65 76 78 75 82 84 81 67 69 89 95 96 97 102 108 108 110 117 119 118 116
75 64 49 65 48 65 66 61 58 58 60 55 53 51 47 58 60 61 63 59 62 61 56 62 60 63 68 63 80 84 85 83 73 82 92 92 93 86 105 105 96 113 112 121 117 122 121
80 69 73 72 70 57 38 66 66 63 60 58 60 64 35 62 66 61 67 65 69 62 71 59 74 74 79 71 79 82 80 89 92 97 91 96 92 99 100 96 97 112 117 118 113 124 123
77 78 81 78 74 70 66 63 62 64 62 66 63 66 63 66 67 69 70 58 65 74 65 76 78 78 81 82 87 91 96 96 86 97 97 72 100 96 76 101 108 111 116 105 112 124 129
75 78 84 80 71 73 81 75 68 62 72 56 71 59 69 67 65 61 61 76 71 72 69 79 68 83 74 77 89 83 91 100 91 89 105 105 93 81 107 112 102 105 120 111 122 128 130
83 90 87 86 86 84 76 81 79 78 70 78 72 73 70 70 78 79 80 76 67 82 74 66 84 82 89 94 85 74 99 80 106 109 97 112 111 104 89 111 118 122 120 120 106 119 126
102 98 94 93 90 83 85 81 86 84 84 86 51 69 78 80 86 84 75 83 87 90 76 89 67 68 92 96 100 100 103 102 108 109 111 102 115 113 112 116 108 122 115 122 126 116 113
104 100 98 93 97 91 95 93 91 73 89 89 82 88 73 85 88 74 84 85 83 80 81 96 93 90 102 102 101 93 106 105 108 113 115 115 87 118 125 103 111 118 128 126 126 131 121
109 98 105 100 79 95 96 91 93 76 89 66 95 72 92 91 85 89 83 86 86 91 90 92 100 102 98 101 106 98 75 111 103 105 98 107 120 103 121 110 126 128 131 129 136 128 128
100 99 94 91 102 100 78 91 101 102 101 78 96 79 92 79 93 97 92 96 87 95 103 75 105 104 98 86 101 95 104 106 114 111 113 120 118 115 127 125 125 127 129 135 131 132 130
Wind_Direction
261 256 270 230 303 255 326 14 7 337 350 343 28 359 13 16 33 27 38 38 13 38 44 49 46 22 36 41 47 30 43 48 40 37 33 37 28 30 27 25 19 23 20 15 14 9 292
266 268 285 261 223 318 308 62 16 348 16 36 336 31 0 35 6 25 360 25 40 38 39 32 37 46 35 46 28 46 26 36 42 34 39 32 27 25 25 22 20 20 15 11 345 356 8
260 228 268 224 232 252 278 282 306 14 351 17 36 3 12 10 2 12 32 13 27 33 4 22 28 30 32 43 38 28 50 46 32 29 37 1 26 29 23 16 18 14 10 11 7 6 1
264 264 277 258 275 295 333 297 293 302 356 346 18 49 358 27 359 353 2 355 22 24 34 18 33 21 13 36 30 21 14 29 25 26 20 18 19 21 15 16 14 8 7 358 5 358 2
252 258 257 238 253 245 259 260 297 50 336 33 5 353 339 345 354 11 8 25 21 22 32 27 31 19 13 27 20 32 25 28 17 18 1 17 5 16 3 5 13 4 4 2 354 2 358
245 264 266 273 238 259 254 294 13 306 60 301 344 2 350 346 6 356 345 349 358 360 22 3 351 8 27 19 26 23 17 23 15 15 15 11 9 12 13 6 4 5 1 1 2 0 360
247 264 253 258 265 258 252 257 331 259 345 312 359 332 340 353 346 350 336 356 341 3 344 10 7 27 21 7 14 22 18 19 13 14 13 9 6 10 9 2 360 358 0 357 357 360 357
252 260 264 240 254 247 278 294 44 336 346 26 319 353 335 15 328 344 353 337 345 345 4 350 12 359 14 352 14 13 2 16 359 3 6 6 10 7 359 0 5 2 355 3 345 357 351
236 238 250 238 261 244 306 282 299 322 300 310 325 309 311 302 327 334 327 340 344 348 349 356 347 341 3 353 350 353 12 353 12 5 4 2 4 4 3 359 1 359 1 356 356 352 350
224 236 227 265 257 278 251 260 7 289 294 342 308 316 315 327 336 343 319 335 334 338 343 336 341 336 2 357 359 348 356 5 353 352 358 4 352 357 1 353 355 358 354 356 351 352 348
233 250 271 269 253 248 275 272 294 270 286 292 357 310 319 322 329 331 335 326 312 330 323 336 344 342 335 340 348 346 2 3 1 354 0 350 357 351 353 348 356 352 354 351 354 352 349
243 248 244 253 233 257 266 257 277 239 255 300 298 307 285 285 316 325 328 329 325 329 323 319 338 327 332 334 358 337 350 359 347 355 1 354 355 345 355 351 354 352 354 349 351 354 349
255 235 254 248 263 264 257 273 275 279 292 295 316 309 291 310 313 313 340 326 326 334 330 332 321 341 326 330 349 346 338 334 344 349 350 343 344 355 353 350 345 351 352 354 348 350 347
253 251 244 243 253 271 275 274 245 299 263 297 298 301 304 306 315 313 314 311 291 329 333 331 336 334 330 338 328 336 346 354 340 340 347 341 350 337 347 335 347 347 350 346 344 349 342
242 241 243 262 266 257 261 253 251 283 282 294 287 297 300 304 308 304 314 310 319 319 313 325 329 324 325 320 328 339 331 338 348 330 338 345 347 345 347 345 344 344 345 342 346 347 344
244 243 246 249 262 257 276 273 267 279 285 284 255 293 296 296 301 309 311 308 316 310 324 310 320 312 324 335 320 338 344 336 342 336 334 345 343 341 347 341 340 339 341 339 342 340 342
251 246 256 239 266 260 270 274 253 283 282 280 285 290 280 296 299 298 304 311 307 295 317 320 315 317 324 324 330 321 337 337 336 328 341 343 343 332 344 337 341 337 338 339 342 342 338
252 252 257 259 259 265 266 230 275 274 283 247 282 276 290 282 297 297 298 281 301 303 315 318 302 327 310 325 329 331 333 334 320 326 341 342 341 334 335 343 340 332 336 338 340 338 335
246 246 252 248 240 257 264 267 266 267 281 278 279 285 297 292 281 304 300 304 308 309 299 308 320 313 310 320 316 319 333 314 321 335 337 335 332 332 330 337 334 330 335 337 339 336 335
248 248 246 254 257 260 258 260 264 269 275 283 269 279 294 281 293 296 300 295 301 308 306 317 306 312 314 313 320 322 327 318 331 335 335 327 328 333 333 332 333 333 333 335 332 331 334
249 250 249 253 259 258 260 262 266 269 271 277 279 281 286 287 292 295 297 303 302 298 301 289 305 307 319 320 314 324 311 326 313 323 322 328 329 337 325 333 333 328 332 327 330 332 333
250 248 250 253 254 265 248 261 263 267 270 273 278 281 284 286 291 286 298 296 302 307 308 316 316 298 308 319 324 317 327 322 323 316 329 325 329 325 331 336 331 328 327 325 332 331 332
245 250 256 258 257 258 261 265 268 268 273 273 277 278 281 286 290 294 294 295 293 302 302 305 306 301 306 318 309 312 316 318 318 320 324 323 325 329 331 331 329 326 327 332 331 326 331
247 246 255 254 252 257 264 263 265 265 273 277 279 280 284 283 290 288 292 299 294 293 303 307 311 307 306 308 320 305 317 314 321 325 319 321 327 330 328 325 330 326 326 331 330 330 328
247 251 253 256 259 263 259 267 269 272 270 278 280 282 284 289 290 291 296 300 300 302 306 301 308 312 311 313 316 310 312 315 310 311 324 317 319 327 328 327 323 322 325 328 332 329 327
248 250 253 256 257 259 262 265 269 271 274 276 276 279 284 287 288 291 294 288 299 302 292 303 298 295 296 307 306 312 309 314 309 312 314 320 319 324 324 324 327 321 330 327 324 330 331
249 251 254 256 258 259 261 264 265 265 271 274 276 276 282 283 286 288 289 293 294 300 297 297 304 307 304 303 306 313 305 309 311 312 313 317 323 319 317 323 325 325 322 323 325 325 326
249 252 254 257 256 261 263 265 267 269 271 273 275 269 279 280 279 287 290 295 293 299 299 302 303 303 302 306 304 311 308 304 309 318 316 321 315 322 318 320 320 320 319 322 323 326 324
250 250 257 258 261 261 261 266 266 266 268 269 274 275 273 282 285 285 284 288 294 297 299 290 298 294 305 304 301 310 312 313 305 312 316 314 316 320 320 322 322 320 322 321 324 325 327